• In Belarus
  • List of Countries
  • For 7 days
  • Water Temperature
  • Satellite Maps
  • Weather Map
  • Weather Widgets
  • user-avatar
    Login

    Hourly Weather Portove

    Today, 19 April, Friday

    Time Temperature Precipitation Wind Pressure Humidity
    00:00 +4°C° 0 mm 2 mps 767 mmHg 61%
    01:00 +4°C° 0 mm 3 mps 767 mmHg 62%
    02:00 +4°C° 0 mm 4 mps 766 mmHg 63%
    03:00 +4°C° 0 mm 4 mps 766 mmHg 64%
    04:00 +4°C° 0 mm 4 mps 766 mmHg 64%
    05:00 +4°C° 0 mm 4 mps 766 mmHg 65%
    06:00 +5°C° 0 mm 5 mps 766 mmHg 62%
    07:00 +6°C° 0 mm 5 mps 766 mmHg 59%
    08:00 +5°C° 0 mm 6 mps 766 mmHg 56%
    09:00 +7°C° 0 mm 6 mps 766 mmHg 53%
    10:00 +8°C° 0 mm 7 mps 766 mmHg 49%
    11:00 +8°C° 0 mm 7 mps 766 mmHg 46%
    12:00 +9°C° 0 mm 7 mps 766 mmHg 45%
    13:00 +9°C° 0 mm 7 mps 766 mmHg 44%
    14:00 +9°C° 0 mm 6 mps 766 mmHg 43%
    15:00 +8°C° 0 mm 6 mps 766 mmHg 44%
    16:00 +8°C° 0 mm 6 mps 767 mmHg 45%
    17:00 +7°C° 0 mm 6 mps 767 mmHg 47%
    18:00 +6°C° 0 mm 5 mps 767 mmHg 50%
    19:00 +5°C° 0 mm 4 mps 767 mmHg 54%
    20:00 +4°C° 0 mm 3 mps 767 mmHg 58%
    21:00 +5°C° 0.1 mm 3 mps 767 mmHg 59%
    22:00 +5°C° 0.1 mm 4 mps 767 mmHg 60%
    23:00 +5°C° 0.1 mm 4 mps 767 mmHg 61%

    Tomorrow, 20 April, Saturday

    Time Temperature Precipitation Wind Pressure Humidity
    00:00 +5°C° 0.1 mm 5 mps 766 mmHg 63%
    01:00 +4°C° 0.1 mm 6 mps 766 mmHg 65%
    02:00 +4°C° 0.1 mm 7 mps 766 mmHg 67%
    03:00 +4°C° 0.1 mm 7 mps 766 mmHg 65%
    04:00 +4°C° 0.1 mm 8 mps 766 mmHg 63%
    05:00 +4°C° 0.1 mm 8 mps 765 mmHg 62%
    06:00 +5°C° 0 mm 9 mps 766 mmHg 59%
    07:00 +5°C° 0 mm 9 mps 766 mmHg 56%
    08:00 +6°C° 0 mm 10 mps 766 mmHg 53%
    09:00 +7°C° 0 mm 10 mps 766 mmHg 50%
    10:00 +8°C° 0 mm 11 mps 766 mmHg 47%
    11:00 +8°C° 0 mm 11 mps 766 mmHg 44%
    12:00 +8°C° 0 mm 11 mps 766 mmHg 43%
    13:00 +9°C° 0 mm 11 mps 766 mmHg 43%
    14:00 +9°C° 0 mm 10 mps 766 mmHg 43%
    15:00 +8°C° 0 mm 10 mps 766 mmHg 45%
    16:00 +7°C° 0 mm 9 mps 767 mmHg 48%
    17:00 +7°C° 0 mm 8 mps 767 mmHg 50%
    18:00 +6°C° 0 mm 7 mps 767 mmHg 51%
    19:00 +5°C° 0 mm 6 mps 767 mmHg 52%
    20:00 +6°C° 0 mm 5 mps 768 mmHg 54%
    21:00 +6°C° 0 mm 5 mps 768 mmHg 54%
    22:00 +5°C° 0 mm 5 mps 768 mmHg 54%
    23:00 +5°C° 0 mm 5 mps 768 mmHg 54%

    Day after tomorrow, 21 April, Sunday

    Time Temperature Precipitation Wind Pressure Humidity
    00:00 +5°C° 0 mm 5 mps 767 mmHg 55%
    01:00 +3°C° 0 mm 5 mps 767 mmHg 57%
    02:00 +3°C° 0 mm 5 mps 767 mmHg 58%
    03:00 +3°C° 0 mm 5 mps 767 mmHg 60%
    04:00 +3°C° 0 mm 5 mps 767 mmHg 62%
    05:00 +2°C° 0 mm 5 mps 767 mmHg 64%
    06:00 +5°C° 0 mm 5 mps 767 mmHg 61%
    07:00 +7°C° 0 mm 5 mps 768 mmHg 57%
    08:00 +8°C° 0 mm 5 mps 768 mmHg 54%
    09:00 +10°C° 0 mm 6 mps 768 mmHg 49%
    10:00 +11°C° 0 mm 6 mps 768 mmHg 44%
    11:00 +12°C° 0 mm 7 mps 768 mmHg 38%
    12:00 +12°C° 0 mm 7 mps 767 mmHg 37%
    13:00 +12°C° 0 mm 7 mps 767 mmHg 36%
    14:00 +12°C° 0 mm 7 mps 767 mmHg 35%
    15:00 +11°C° 0 mm 6 mps 767 mmHg 36%
    16:00 +11°C° 0 mm 6 mps 767 mmHg 37%
    17:00 +10°C° 0 mm 6 mps 767 mmHg 38%
    18:00 +9°C° 0 mm 5 mps 767 mmHg 42%
    19:00 +8°C° 0 mm 4 mps 768 mmHg 45%
    20:00 +7°C° 0 mm 3 mps 768 mmHg 49%
    21:00 +6°C° 0 mm 4 mps 768 mmHg 50%
    22:00 +6°C° 0 mm 4 mps 768 mmHg 51%
    23:00 +6°C° 0 mm 4 mps 768 mmHg 52%

    22 April, Monday

    Time Temperature Precipitation Wind Pressure Humidity
    00:00 +6°C° 0 mm 4 mps 768 mmHg 54%
    01:00 +6°C° 0 mm 4 mps 768 mmHg 57%
    02:00 +6°C° 0 mm 5 mps 768 mmHg 59%
    03:00 +5°C° 0 mm 5 mps 768 mmHg 63%
    04:00 +5°C° 0 mm 5 mps 768 mmHg 66%
    05:00 +5°C° 0 mm 5 mps 768 mmHg 69%
    06:00 +6°C° 0 mm 5 mps 768 mmHg 64%
    07:00 +8°C° 0 mm 6 mps 769 mmHg 58%
    08:00 +10°C° 0 mm 6 mps 769 mmHg 53%
    09:00 +11°C° 0 mm 7 mps 769 mmHg 48%
    10:00 +12°C° 0 mm 7 mps 769 mmHg 43%
    11:00 +13°C° 0 mm 8 mps 769 mmHg 38%
    12:00 +13°C° 0 mm 8 mps 769 mmHg 37%
    13:00 +13°C° 0 mm 8 mps 769 mmHg 36%
    14:00 +13°C° 0 mm 8 mps 769 mmHg 36%
    15:00 +12°C° 0 mm 7 mps 769 mmHg 37%
    16:00 +12°C° 0 mm 7 mps 769 mmHg 39%
    17:00 +11°C° 0 mm 6 mps 769 mmHg 41%
    18:00 +10°C° 0 mm 5 mps 770 mmHg 45%
    19:00 +10°C° 0 mm 4 mps 770 mmHg 49%
    20:00 +8°C° 0 mm 3 mps 770 mmHg 53%
    21:00 +8°C° 0 mm 3 mps 770 mmHg 54%
    22:00 +8°C° 0 mm 3 mps 771 mmHg 54%
    23:00 +8°C° 0 mm 3 mps 771 mmHg 55%

    23 April, Tuesday

    Time Temperature Precipitation Wind Pressure Humidity
    00:00 +8°C° 0 mm 3 mps 771 mmHg 57%
    01:00 +7°C° 0 mm 3 mps 771 mmHg 60%
    02:00 +6°C° 0 mm 4 mps 771 mmHg 62%
    03:00 +6°C° 0 mm 4 mps 771 mmHg 65%
    04:00 +6°C° 0 mm 4 mps 771 mmHg 68%
    05:00 +6°C° 0 mm 4 mps 771 mmHg 71%
    06:00 +7°C° 0 mm 4 mps 772 mmHg 66%
    07:00 +9°C° 0 mm 5 mps 772 mmHg 60%
    08:00 +12°C° 0 mm 5 mps 772 mmHg 55%
    09:00 +13°C° 0 mm 6 mps 772 mmHg 51%
    10:00 +14°C° 0 mm 6 mps 772 mmHg 46%
    11:00 +15°C° 0 mm 6 mps 773 mmHg 42%
    12:00 +15°C° 0 mm 6 mps 772 mmHg 41%
    13:00 +15°C° 0 mm 6 mps 772 mmHg 40%
    14:00 +15°C° 0 mm 6 mps 772 mmHg 39%
    15:00 +15°C° 0 mm 6 mps 772 mmHg 41%
    16:00 +14°C° 0 mm 5 mps 772 mmHg 42%
    17:00 +14°C° 0 mm 5 mps 772 mmHg 43%
    18:00 +12°C° 0 mm 5 mps 772 mmHg 48%
    19:00 +10°C° 0 mm 4 mps 772 mmHg 52%
    20:00 +8°C° 0 mm 4 mps 772 mmHg 57%
    21:00 +7°C° 0 mm 4 mps 772 mmHg 58%
    22:00 +8°C° 0 mm 3 mps 772 mmHg 59%
    23:00 +7°C° 0 mm 3 mps 772 mmHg 60%

    24 April, Wednesday

    Time Temperature Precipitation Wind Pressure Humidity
    00:00 +6°C° 0 mm 4 mps 772 mmHg 61%
    01:00 +6°C° 0 mm 4 mps 772 mmHg 62%
    02:00 +6°C° 0 mm 4 mps 772 mmHg 63%
    03:00 +6°C° 0 mm 4 mps 772 mmHg 66%
    04:00 +6°C° 0 mm 5 mps 772 mmHg 69%
    05:00 +6°C° 0 mm 5 mps 772 mmHg 72%
    06:00 +8°C° 0 mm 5 mps 772 mmHg 67%
    07:00 +10°C° 0 mm 6 mps 772 mmHg 62%
    08:00 +13°C° 0 mm 6 mps 772 mmHg 57%
    09:00 +14°C° 0 mm 7 mps 772 mmHg 53%
    10:00 +15°C° 0 mm 7 mps 772 mmHg 48%
    11:00 +16°C° 0 mm 7 mps 772 mmHg 44%
    12:00 +16°C° 0 mm 7 mps 772 mmHg 43%
    13:00 +17°C° 0 mm 7 mps 772 mmHg 43%
    14:00 +17°C° 0 mm 7 mps 772 mmHg 43%
    15:00 +16°C° 0 mm 7 mps 772 mmHg 44%
    16:00 +15°C° 0 mm 7 mps 772 mmHg 46%
    17:00 +14°C° 0 mm 7 mps 772 mmHg 48%
    18:00 +11°C° 0 mm 6 mps 772 mmHg 51%
    19:00 +10°C° 0 mm 5 mps 772 mmHg 54%
    20:00 +8°C° 0 mm 4 mps 772 mmHg 58%
    21:00 +7°C° 0 mm 4 mps 772 mmHg 60%
    22:00 +7°C° 0 mm 4 mps 772 mmHg 62%
    23:00 +7°C° 0 mm 3 mps 772 mmHg 64%
    Show more